This is the latest recevied weather packets stored in our database for station/object AB0TJ. If no packets are shown the sender has not sent any weather packets the latest 10 day(s).
| Time | Temp. | Humidity | Pressure | Rain* | Wind** | Luminosity | Snow |
|---|---|---|---|---|---|---|---|
| 1778011759 | 22.22° C | 16% | 1005.5 hPa | 0 mm | - | 846 W/m² | - |
| 1778011164 | 21.67° C | 16% | 1005.5 hPa | 0 mm | - | 860 W/m² | - |
| 1778010604 | 21.67° C | 17% | 1005.4 hPa | 0 mm | - | 876 W/m² | - |
| 1778010019 | 21.11° C | 18% | 1005.5 hPa | 0 mm | - | 559 W/m² | - |
| 1778009508 | 21.11° C | 18% | 1005.6 hPa | 0 mm | - | 699 W/m² | - |
| 1778009019 | 20.56° C | 18% | 1005.7 hPa | 0 mm | - | 271 W/m² | - |
| 1778008520 | 21.11° C | 21% | 1005.9 hPa | 0 mm | - | 198 W/m² | - |
| 1778007992 | 21.67° C | 20% | 1005.9 hPa | 0 mm | - | 226 W/m² | - |
| 1778007398 | 21.11° C | 21% | 1006.2 hPa | 0 mm | - | 883 W/m² | - |
| 1778006839 | 20.56° C | 21% | 1006.1 hPa | 0 mm | - | 688 W/m² | - |
| 1778006344 | 21.11° C | 22% | 1006.3 hPa | 0 mm | - | 195 W/m² | - |
| 1778005839 | 21.11° C | 22% | 1006.4 hPa | 0 mm | - | 481 W/m² | - |
| 1778005304 | 21.11° C | 24% | 1006.4 hPa | 0 mm | - | 819 W/m² | - |
| 1778004759 | 20.56° C | 26% | 1006.6 hPa | 0 mm | - | 799 W/m² | - |
| 1778004224 | 20.56° C | 26% | 1006.8 hPa | 0 mm | - | 735 W/m² | - |
| 1778003719 | 20° C | 27% | 1007 hPa | 0 mm | - | 792 W/m² | - |
| 1778003154 | 20° C | 28% | 1007.1 hPa | 0 mm | - | 783 W/m² | - |
| 1778002574 | 20° C | 30% | 1006.9 hPa | 0 mm | - | 736 W/m² | - |
| 1778002059 | 19.44° C | 31% | 1007.2 hPa | 0 mm | - | 718 W/m² | - |
| 1778001464 | 19.44° C | 31% | 1007.2 hPa | 0 mm | - | 699 W/m² | - |
| 1778000959 | 19.44° C | 30% | 1007.3 hPa | 0 mm | - | 683 W/m² | - |
| 1778000454 | 20° C | 30% | 1007.3 hPa | 0 mm | - | 668 W/m² | - |
| 1777999881 | 20° C | 31% | 1007.5 hPa | 0 mm | - | 645 W/m² | - |
| 1777999334 | 20° C | 31% | 1007.5 hPa | 0 mm | - | 627 W/m² | - |
| 1777998824 | 20.56° C | 30% | 1007.8 hPa | 0 mm | - | 604 W/m² | - |
* Rain latest hour (hover to see other rain measurements)
** Current wind speed in m/s (hover to see current wind gust speed)